Time,TemperatureF,DewpointF,PressureIn,WindDirection,WindDirectionDegrees,WindSpeedMPH,WindSpeedGustMPH,Humidity,HourlyPrecipIn,Conditions,Clouds,dailyrainin,SoftwareType,DateUTC
2013-01-28 00:11:00,44.8,44.5,29.89,SSE,157,3.2,-999.0,99,-99.99,,,0.00,Acu-Link.com,2013-01-28 06:11:00,
2013-01-28 00:26:00,44.6,44.3,29.89,South,180,3.2,-999.0,99,-99.99,,,0.00,Acu-Link.com,2013-01-28 06:26:00,
2013-01-28 00:41:00,44.4,44.1,29.89,South,180,0.0,-999.0,99,-99.99,,,0.00,Acu-Link.com,2013-01-28 06:41:00,
2013-01-28 00:57:00,44.8,44.5,29.89,South,180,3.2,-999.0,99,-99.99,,,0.00,Acu-Link.com,2013-01-28 06:57:00,
2013-01-28 01:12:00,45.0,44.7,29.88,SSE,157,4.7,-999.0,99,-99.99,,,0.00,Acu-Link.com,2013-01-28 07:12:00,
2013-01-28 01:27:00,46.4,46.1,29.89,SSE,157,2.7,-999.0,99,-99.99,,,0.00,Acu-Link.com,2013-01-28 07:27:00,
2013-01-28 01:42:00,45.5,45.2,29.89,SSE,157,0.0,-999.0,99,-99.99,,,0.00,Acu-Link.com,2013-01-28 07:42:00,
2013-01-28 01:57:00,45.9,45.6,29.90,SSE,157,0.0,-999.0,99,-99.99,,,0.00,Acu-Link.com,2013-01-28 07:57:00,
2013-01-28 02:12:00,47.1,46.8,29.90,South,180,2.7,-999.0,99,-99.99,,,0.00,Acu-Link.com,2013-01-28 08:12:00,
2013-01-28 02:27:00,48.0,47.7,29.90,SSE,157,0.0,-999.0,99,-99.99,,,0.00,Acu-Link.com,2013-01-28 08:27:00,
2013-01-28 02:42:00,48.4,48.1,29.90,SSE,157,0.0,-999.0,99,-99.99,,,0.00,Acu-Link.com,2013-01-28 08:42:00,
2013-01-28 02:57:00,49.1,48.8,29.89,South,180,0.0,-999.0,99,-99.99,,,0.00,Acu-Link.com,2013-01-28 08:57:00,
2013-01-28 03:15:00,49.3,49.0,29.89,SSW,202,1.1,-999.0,99,-99.99,,,0.00,Acu-Link.com,2013-01-28 09:15:00,
2013-01-28 03:30:00,50.2,49.9,29.90,South,180,0.0,-999.0,99,-99.99,,,0.00,Acu-Link.com,2013-01-28 09:30:00,
2013-01-28 03:45:00,50.5,50.2,29.89,South,180,0.0,-999.0,99,-99.99,,,0.00,Acu-Link.com,2013-01-28 09:45:00,
2013-01-28 04:00:00,50.9,50.6,29.89,SSW,202,0.0,-999.0,99,-99.99,,,0.00,Acu-Link.com,2013-01-28 10:00:00,
2013-01-28 04:16:00,50.9,50.6,29.89,South,180,0.0,-999.0,99,-99.99,,,0.00,Acu-Link.com,2013-01-28 10:16:00,
2013-01-28 04:31:00,50.9,50.6,29.89,SSW,202,4.7,-999.0,99,-99.99,,,0.00,Acu-Link.com,2013-01-28 10:31:00,
2013-01-28 04:46:00,50.4,50.1,29.89,South,180,0.0,-999.0,99,-99.99,,,0.00,Acu-Link.com,2013-01-28 10:46:00,
2013-01-28 05:01:00,50.4,50.1,29.88,SSE,157,0.0,-999.0,99,-99.99,,,0.00,Acu-Link.com,2013-01-28 11:01:00,
2013-01-28 05:16:00,50.5,50.2,29.87,SSE,157,0.0,-999.0,99,-99.99,,,0.00,Acu-Link.com,2013-01-28 11:16:00,
2013-01-28 05:31:00,50.2,49.9,29.88,South,180,0.0,-999.0,99,-99.99,,,0.00,Acu-Link.com,2013-01-28 11:31:00,
2013-01-28 05:46:00,49.8,49.5,29.89,South,180,0.0,-999.0,99,-99.99,,,0.00,Acu-Link.com,2013-01-28 11:46:00,
2013-01-28 06:01:00,50.2,49.9,29.89,South,180,0.0,-999.0,99,-99.99,,,0.00,Acu-Link.com,2013-01-28 12:01:00,
2013-01-28 06:17:00,50.2,49.9,29.90,SSE,157,0.0,-999.0,99,-99.99,,,0.00,Acu-Link.com,2013-01-28 12:17:00,
2013-01-28 06:32:00,50.7,50.4,29.89,SSE,157,0.0,-999.0,99,-99.99,,,0.00,Acu-Link.com,2013-01-28 12:32:00,
2013-01-28 06:47:00,50.5,50.2,29.90,SSE,157,0.0,-999.0,99,-99.99,,,0.00,Acu-Link.com,2013-01-28 12:47:00,
2013-01-28 07:02:00,50.7,50.4,29.91,SSE,157,0.0,-999.0,99,-99.99,,,0.00,Acu-Link.com,2013-01-28 13:02:00,
2013-01-28 07:17:00,51.3,51.0,29.89,South,180,5.3,-999.0,99,-99.99,,,0.00,Acu-Link.com,2013-01-28 13:17:00,
2013-01-28 07:32:00,51.4,51.1,29.89,South,180,3.7,-999.0,99,-99.99,,,0.00,Acu-Link.com,2013-01-28 13:32:00,
2013-01-28 07:48:00,51.8,51.5,29.89,SSE,157,4.7,-999.0,99,-99.99,,,0.00,Acu-Link.com,2013-01-28 13:48:00,
2013-01-28 08:03:00,52.3,52.0,29.90,SSW,202,0.0,-999.0,99,-99.99,,,0.01,Acu-Link.com,2013-01-28 14:03:00,
2013-01-28 08:18:00,51.6,-5.3,29.89,South,180,3.7,-999.0,9,-99.99,,,0.02,Acu-Link.com,2013-01-28 14:18:00,
2013-01-28 08:33:00,52.5,44.8,29.89,South,180,3.7,-999.0,75,-99.99,,,0.03,Acu-Link.com,2013-01-28 14:33:00,
2013-01-28 08:48:00,52.9,52.4,29.89,SSE,157,1.1,-999.0,98,-99.99,,,0.03,Acu-Link.com,2013-01-28 14:48:00,
2013-01-28 09:03:00,53.8,53.2,29.88,South,180,3.7,-999.0,98,-99.99,,,0.03,Acu-Link.com,2013-01-28 15:03:00,
2013-01-28 09:18:00,53.1,8.1,29.89,South,180,0.0,-999.0,16,-99.99,,,0.05,Acu-Link.com,2013-01-28 15:18:00,
2013-01-28 09:33:00,53.6,19.6,29.88,SSW,202,0.0,-999.0,26,-99.99,,,0.06,Acu-Link.com,2013-01-28 15:33:00,
2013-01-28 09:48:00,53.6,21.3,29.89,SSE,157,0.0,-999.0,28,-99.99,,,0.08,Acu-Link.com,2013-01-28 15:48:00,
2013-01-28 10:04:00,54.1,27.1,29.89,SSW,202,0.0,-999.0,35,-99.99,,,0.12,Acu-Link.com,2013-01-28 16:04:00,
2013-01-28 10:19:00,53.8,24.6,29.89,South,180,0.0,-999.0,32,-99.99,,,0.15,Acu-Link.com,2013-01-28 16:19:00,
2013-01-28 10:34:00,53.6,28.0,29.89,South,180,0.0,-999.0,37,-99.99,,,0.20,Acu-Link.com,2013-01-28 16:34:00,
2013-01-28 10:49:00,53.6,27.3,29.89,SSW,202,0.0,-999.0,36,-99.99,,,0.22,Acu-Link.com,2013-01-28 16:49:00,
2013-01-28 11:04:00,54.0,27.7,29.90,SSW,202,0.0,-999.0,36,-99.99,,,0.23,Acu-Link.com,2013-01-28 17:04:00,
2013-01-28 11:19:00,54.0,27.0,29.89,East,90,0.0,-999.0,35,-99.99,,,0.25,Acu-Link.com,2013-01-28 17:19:00,
2013-01-28 11:34:00,54.5,27.4,29.88,South,180,0.0,-999.0,35,-99.99,,,0.25,Acu-Link.com,2013-01-28 17:34:00,
2013-01-28 11:49:00,54.9,28.5,29.87,South,180,0.0,-999.0,36,-99.99,,,0.25,Acu-Link.com,2013-01-28 17:49:00,
2013-01-28 12:04:00,56.1,28.8,29.86,SSW,202,0.0,-999.0,35,-99.99,,,0.25,Acu-Link.com,2013-01-28 18:04:00,
2013-01-28 12:19:00,56.7,21.3,29.86,South,180,0.0,-999.0,25,-99.99,,,0.25,Acu-Link.com,2013-01-28 18:19:00,
2013-01-28 12:35:00,57.6,16.8,29.85,SSW,202,0.0,-999.0,20,-99.99,,,0.25,Acu-Link.com,2013-01-28 18:35:00,
2013-01-28 12:50:00,58.1,47.6,29.85,ESE,112,0.0,-999.0,68,-99.99,,,0.25,Acu-Link.com,2013-01-28 18:50:00,
2013-01-28 13:05:00,58.6,58.0,29.84,SW,225,0.0,-999.0,98,-99.99,,,0.25,Acu-Link.com,2013-01-28 19:05:00,
2013-01-28 13:20:00,59.0,58.4,29.83,SW,225,0.0,-999.0,98,-99.99,,,0.25,Acu-Link.com,2013-01-28 19:20:00,
2013-01-28 13:35:00,59.9,59.3,29.82,SSE,157,0.0,-999.0,98,-99.99,,,0.25,Acu-Link.com,2013-01-28 19:35:00,
2013-01-28 13:50:00,60.3,59.7,29.82,SE,135,0.0,-999.0,98,-99.99,,,0.25,Acu-Link.com,2013-01-28 19:50:00,
2013-01-28 14:05:00,60.4,59.8,29.82,SSE,157,0.0,-999.0,98,-99.99,,,0.25,Acu-Link.com,2013-01-28 20:05:00,
2013-01-28 14:20:00,61.2,60.6,29.82,NNW,337,0.0,-999.0,98,-99.99,,,0.25,Acu-Link.com,2013-01-28 20:20:00,
2013-01-28 14:35:00,60.8,60.2,29.82,NNW,337,0.0,-999.0,98,-99.99,,,0.25,Acu-Link.com,2013-01-28 20:35:00,
2013-01-28 14:51:00,61.3,60.7,29.82,NNW,337,0.0,-999.0,98,-99.99,,,0.25,Acu-Link.com,2013-01-28 20:51:00,
2013-01-28 15:06:00,61.7,61.1,29.82,NNW,337,0.0,-999.0,98,-99.99,,,0.25,Acu-Link.com,2013-01-28 21:06:00,
2013-01-28 15:21:00,61.3,60.7,29.82,NNW,337,0.0,-999.0,98,-99.99,,,0.25,Acu-Link.com,2013-01-28 21:21:00,
2013-01-28 15:36:00,61.9,61.3,29.82,NNW,337,0.0,-999.0,98,-99.99,,,0.25,Acu-Link.com,2013-01-28 21:36:00,
2013-01-28 15:51:00,62.2,61.6,29.82,NNW,337,0.0,-999.0,98,-99.99,,,0.25,Acu-Link.com,2013-01-28 21:51:00,
2013-01-28 16:06:00,61.3,60.7,29.82,NNW,337,0.0,-999.0,98,-99.99,,,0.25,Acu-Link.com,2013-01-28 22:06:00,
2013-01-28 16:21:00,60.8,60.2,29.82,NNW,337,0.0,-999.0,98,-99.99,,,0.25,Acu-Link.com,2013-01-28 22:21:00,
2013-01-28 16:36:00,59.5,58.9,29.83,NNW,337,0.0,-999.0,98,-99.99,,,0.25,Acu-Link.com,2013-01-28 22:36:00,
2013-01-28 16:51:00,59.2,58.6,29.83,NNW,337,0.0,-999.0,98,-99.99,,,0.25,Acu-Link.com,2013-01-28 22:51:00,
2013-01-28 17:07:00,58.5,57.9,29.83,NNW,337,0.0,-999.0,98,-99.99,,,0.25,Acu-Link.com,2013-01-28 23:07:00,
2013-01-28 17:22:00,58.3,57.7,29.82,NNW,337,0.0,-999.0,98,-99.99,,,0.25,Acu-Link.com,2013-01-28 23:22:00,
2013-01-28 17:37:00,58.8,58.2,29.83,SSE,157,3.7,-999.0,98,-99.99,,,0.25,Acu-Link.com,2013-01-28 23:37:00,
2013-01-28 17:52:00,58.8,58.2,29.84,SSW,202,4.2,-999.0,98,-99.99,,,0.25,Acu-Link.com,2013-01-28 23:52:00,
2013-01-28 18:07:00,58.8,58.2,29.83,SSE,157,5.8,-999.0,98,-99.99,,,0.25,Acu-Link.com,2013-01-29 00:07:00,
2013-01-28 18:22:00,58.6,58.0,29.84,SE,135,4.2,-999.0,98,-99.99,,,0.25,Acu-Link.com,2013-01-29 00:22:00,
2013-01-28 18:37:00,57.0,56.4,29.83,SSE,157,0.0,-999.0,98,-99.99,,,0.25,Acu-Link.com,2013-01-29 00:37:00,
2013-01-28 18:52:00,55.6,55.0,29.83,SSE,157,0.0,-999.0,98,-99.99,,,0.25,Acu-Link.com,2013-01-29 00:52:00,
2013-01-28 19:07:00,54.7,54.1,29.83,SSE,157,2.7,-999.0,98,-99.99,,,0.25,Acu-Link.com,2013-01-29 01:07:00,
2013-01-28 19:23:00,54.3,53.7,29.82,SSE,157,0.0,-999.0,98,-99.99,,,0.25,Acu-Link.com,2013-01-29 01:23:00,
2013-01-28 19:38:00,54.1,53.5,29.83,SSE,157,0.0,-999.0,98,-99.99,,,0.25,Acu-Link.com,2013-01-29 01:38:00,
2013-01-28 19:53:00,53.2,52.6,29.83,SSE,157,0.0,-999.0,98,-99.99,,,0.25,Acu-Link.com,2013-01-29 01:53:00,
2013-01-28 20:08:00,52.7,52.2,29.83,SSE,157,0.0,-999.0,98,-99.99,,,0.25,Acu-Link.com,2013-01-29 02:08:00,
2013-01-28 20:23:00,52.5,52.0,29.82,SSE,157,0.0,-999.0,98,-99.99,,,0.25,Acu-Link.com,2013-01-29 02:23:00,
2013-01-28 20:38:00,52.3,51.8,29.82,SSE,157,0.0,-999.0,98,-99.99,,,0.25,Acu-Link.com,2013-01-29 02:38:00,
2013-01-28 20:53:00,51.6,9.5,29.82,SSE,157,0.0,-999.0,18,-99.99,,,0.25,Acu-Link.com,2013-01-29 02:53:00,
2013-01-28 21:08:00,50.9,16.4,29.82,SSE,157,0.0,-999.0,25,-99.99,,,0.25,Acu-Link.com,2013-01-29 03:08:00,
2013-01-28 21:23:00,50.9,21.4,29.82,SSE,157,0.0,-999.0,31,-99.99,,,0.25,Acu-Link.com,2013-01-29 03:23:00,
2013-01-28 21:39:00,49.6,13.3,29.83,SSE,157,0.0,-999.0,23,-99.99,,,0.25,Acu-Link.com,2013-01-29 03:39:00,
2013-01-28 21:54:00,50.5,20.2,29.82,SSE,157,0.0,-999.0,30,-99.99,,,0.25,Acu-Link.com,2013-01-29 03:54:00,
2013-01-28 22:09:00,51.4,12.8,29.82,SSE,157,0.0,-999.0,21,-99.99,,,0.25,Acu-Link.com,2013-01-29 04:09:00,
2013-01-28 22:24:00,51.3,5.3,29.82,SSE,157,0.0,-999.0,15,-99.99,,,0.25,Acu-Link.com,2013-01-29 04:24:00,
2013-01-28 22:39:00,50.0,2.7,29.82,SSE,157,0.0,-999.0,14,-99.99,,,0.25,Acu-Link.com,2013-01-29 04:39:00,
2013-01-28 22:54:00,50.7,19.6,29.82,SSE,157,0.0,-999.0,29,-99.99,,,0.25,Acu-Link.com,2013-01-29 04:54:00,
2013-01-28 23:09:00,51.6,21.2,29.82,SSE,157,0.0,-999.0,30,-99.99,,,0.25,Acu-Link.com,2013-01-29 05:09:00,
2013-01-28 23:24:00,52.9,19.8,29.82,SSE,157,0.0,-999.0,27,-99.99,,,0.25,Acu-Link.com,2013-01-29 05:24:00,
2013-01-28 23:39:00,52.7,-6.9,29.82,South,180,0.0,-999.0,8,-99.99,,,0.25,Acu-Link.com,2013-01-29 05:39:00,
2013-01-28 23:55:00,52.5,-2.5,29.81,South,180,0.0,-999.0,10,-99.99,,,0.25,Acu-Link.com,2013-01-29 05:55:00,